Regional Weather Roundup
Issued by NWS

Home | Current Version | Previous Version | Graphics & Text | Print | Product List | Glossary On
Versions: 1 2 3 4 5 6 7 8 9 10 11 12 13 14 15 16 17 18 19 20 21 22 23 24 25 26 27 28 29 30 31 32 33 34 35 36 37 38 39 40 41 42 43 44 45 46 47 48 49 50
157
ASUS43 KMPX 221810
RWRMN
WEATHER ROUNDUP FOR MINNESOTA
NATIONAL WEATHER SERVICE TWIN CITIES/CHANHASSEN MN
100 PM CDT WED MAR 22 2017


NOTE: "FAIR" INDICATES FEW OR NO CLOUDS BELOW 12,000 FEET WITH NO
SIGNIFICANT WEATHER AND/OR OBSTRUCTIONS TO VISIBILITY. N/A MEANS
CURRENT SKY AND/OR WEATHER CONDITIONS ARE NOT AVAILABLE.

MNZ060>063-068>070-221900-
   Twin Cities Metro

CITY           SKY/WX    TMP DP  RH WIND       PRES   REMARKS
TWIN CITIES    MOSUNNY   35   8  32 SE10      30.51F WCI  27
6HR MIN TEMP:  21; 6HR MAX TEMP:  35;

ST PAUL        SUNNY     36   9  32 SE13      30.53F
CRYSTAL        SUNNY     35   7  31 SE13G20   30.50F WCI  26
BLAINE         MOSUNNY   37   9  30 SE12G17   30.50F
LAKEVILLE      SUNNY     34  12  40 S10G18    30.50F WCI  26
EDEN PRAIRIE   SUNNY     36   8  31 S12G23    30.49F
6HR MIN TEMP:  21; 6HR MAX TEMP:  37;

SOUTH ST PAUL  SUNNY     34  10  35 SE8G16    30.52F WCI  28
LAKE ELMO      FAIR      34  10  37 SE7       30.52F WCI  28
$$
MNZ001>005-007-008-013>017-022>024-027-028-221900-
   Northwest Minnesota

CITY           SKY/WX    TMP DP  RH WIND       PRES   REMARKS
BEMIDJI        CLOUDY    30   5  35 SE13      30.39F WCI  20
HALLOCK        CLOUDY    28  16  59 SE22      30.33F WCI  15
ROSEAU         CLOUDY    30  10  43 S13       30.37F WCI  20
WARROAD        CLOUDY    28   9  43 S12       30.39F WCI  18
THIEF RVR FALL CLOUDY    29  10  45 S17       30.36F WCI  17
CROOKSTON      CLOUDY    28  10  47 S22       30.36F WCI  15
FOSSTON        CLOUDY    28   9  43 SE12      30.36F WCI  18
DETROIT LAKES  MOSUNNY   32  10  40 SE21G28   30.36F WCI  20
MOORHEAD       PTSUNNY   30  12  47 S23G31    30.36F WCI  17
PARK RAPIDS    CLOUDY    31   6  35 SE15      30.39F WCI  20
MAHNOMEN       CLOUDY    29   8  39 SE15      30.35F WCI  18
$$
MNZ006-009>011-018-025>026-221900-
   North Central Minnesota

CITY           SKY/WX    TMP DP  RH WIND       PRES   REMARKS
BAUDETTE       CLOUDY    30   4  33 S10       30.39F WCI  21
FLAG ISLAND    CLOUDY    23  10  58 S16       30.39F WCI  10
INTL FALLS     CLOUDY    27   3  35 SE9       30.44F WCI  18
6HR MIN TEMP:   5; 6HR MAX TEMP:  28;

WASKISH        CLOUDY    30   7  37 SE7       30.41F WCI  23
BIG FORK       CLOUDY    28   7  40 SE9       30.44F WCI  20
LONGVILLE      CLOUDY    30   3  31 S14       30.43F WCI  20
GRAND RAPIDS   MOSUNNY   29   7  39 S13       30.46F WCI  19
CRANE LAKE     SUNNY     27  -4  26 S6        30.51F WCI  20
ORR            MOSUNNY   28  -2  26 CALM      30.44F
COOK           MOSUNNY   28   7  40 SE7       30.48F WCI  21
WALKER         CLOUDY    29   6  37 SE8G17    30.40F WCI  21
$$
MNZ012-019>021-037-221900-
   Northeast Minnesota

CITY           SKY/WX    TMP DP  RH WIND       PRES   REMARKS
DULUTH         CLOUDY    28   9  44 S10       30.49F WCI  19
6HR MIN TEMP:  12; 6HR MAX TEMP:  28;

ELY            SUNNY     28   1  31 S9        30.48F WCI  20
HIBBING        MOSUNNY   27   6  41 SE7       30.47F WCI  19
EVELETH        MOSUNNY   32   1  27 S6        30.49F WCI  26
DULUTH HARBOR  MOSUNNY   30  16  55 NE8       30.56F WCI  23
TWO HARBORS    CLOUDY    30  12  47 S5        30.51F WCI  25
SILVER BAY     CLOUDY    27  12  54 SE6       30.52F WCI  20
GRAND MARAIS     N/A     24  10  55 W3        30.60F
G MARAIS ARPRT SUNNY     21   3  45 S5        30.50R WCI  15
$$
MNZ029>031-032-039>041-046>048-054>057-064-221900-
   West Central Minnesota

CITY           SKY/WX    TMP DP  RH WIND       PRES   REMARKS
FERGUS FALLS   PTSUNNY   30  10  43 SE20      30.41F WCI  18
WHEATON        CLOUDY    28  14  54 SE24G30   30.37F WCI  14
MORRIS         CLOUDY    30  14  51 SE23G30   30.38F WCI  17
ALEXANDRIA     CLOUDY    30  11  45 SE18      30.41F WCI  18
ELBOW LAKE     CLOUDY    30  13  48 SE20G28   30.39F WCI  18
WADENA         CLOUDY    30   9  40 S17       30.39F WCI  18
GLENWOOD       CLOUDY    30  10  43 SE16      30.42F WCI  19
APPLETON       CLOUDY    30  16  55 SE16G23   30.39F WCI  19
BENSON         CLOUDY    32   9  37 S14G24    30.43F WCI  22
ORTONVILLE     CLOUDY    30  18  59 S16G25    30.36F WCI  19
MADISON        CLOUDY    34  19  55 S18       30.38F WCI  23
WILLMAR        FAIR      34  16  47 S16       30.44F WCI  23
$$
MNZ033>034-036-042>043-049>051-058-059-221900-
   Central Minnesota

CITY           SKY/WX    TMP DP  RH WIND       PRES   REMARKS
ST CLOUD       SUNNY     33   8  35 SE16      30.47F WCI  23
6HR MIN TEMP:  16; 6HR MAX TEMP:  33;

SAUK CENTRE    CLOUDY    30  11  45 SE14G21   30.44F WCI  19
PAYNESVILLE      N/A     31  11  41 SE13      30.45F WCI  22
AITKIN         MOSUNNY   34   0  23 S13G18    30.46F WCI  25
PINE RIVER     CLOUDY    30   9  40 SE17      30.46F WCI  18
BRAINERD       CLOUDY    32   4  30 S10G17    30.46F WCI  24
STAPLES        CLOUDY    30   5  34 SE12G17   30.42F WCI  21
LONG PRAIRIE   CLOUDY    32  10  40 E12       30.43F WCI  23
LITTLE FALLS   SUNNY     32   5  32 S10G18    30.46F WCI  24
LITCHFIELD     PTSUNNY   32  12  43 SE10      30.47S WCI  24
BUFFALO        SUNNY     34   8  33 S12G17    30.50F WCI  25
MAPLE LAKE     MOSUNNY   35  12  39 SE12      30.49F WCI  26
HUTCHINSON     CLOUDY    33  17  51 SE10G20   30.48F WCI  24
$$
MNZ037-044-045-052-053-221900-
   East Central Minnesota

CITY           SKY/WX    TMP DP  RH WIND       PRES   REMARKS
PRINCETON      SUNNY     37   7  28 SE9G17    30.49F
MORA           MOSUNNY   34   9  35 S6        30.52S WCI  29
CAMBRIDGE      SUNNY     36  16  44 SE10      30.49S
RUSH CITY      SUNNY     33   7  33 S6        30.52S WCI  28
MOOSE LAKE     CLOUDY    32   9  37 SE6       30.48F WCI  26
HINCKLEY       FAIR      34  10  37 S10       30.51S WCI  26
CLOQUET        SUNNY     30   1  29 SE6       30.48F WCI  24
MCGREGOR       SUNNY     32   5  32 SE9       30.48F WCI  24
$$
MNZ071>073-080-081-089-090-097-098-221900-
   Southwest Minnesota

CITY           SKY/WX    TMP DP  RH WIND       PRES   REMARKS
MONTEVIDEO     CLOUDY    30  18  59 S18       30.42F WCI  18
GRANITE FALLS  CLOUDY    32  20  61 SE17      30.43F WCI  21
CANBY          CLOUDY    34  19  54 SE17      30.38F WCI  23
MARSHALL       PTSUNNY   33  19  56 S22       30.39F WCI  21
REDWOOD FALLS  CLOUDY    32  17  54 S20       30.44F WCI  20
OLIVIA         CLOUDY    32  19  59 SE14G22   30.44F WCI  22
PIPESTONE      CLOUDY    32  16  51 S17       30.34F WCI  21
WINDOM         CLOUDY    32  21  64 SE17      30.42F WCI  21
WORTHINGTON    CLOUDY    30  22  72 SE15G22   30.40F WCI  19
JACKSON        CLOUDY    32  21  64 S15       30.43F WCI  22
TRACY          CLOUDY    32  22  66 S15G21    30.41F WCI  22
SLAYTON        CLOUDY    30  21  68 SE18      30.39F WCI  18
$$
MNZ065>067-074>077-082>085-091>093-221900-
   South Central Minnesota

CITY           SKY/WX    TMP DP  RH WIND       PRES   REMARKS
MANKATO        CLOUDY    33  18  53 S15G22    30.48F WCI  23
NEW ULM        PTSUNNY   34  18  51 S15       30.47F WCI  24
ST JAMES       MOSUNNY   32  21  64 SE15      30.48S WCI  22
FAIRMONT       CLOUDY    33  21  61 S16       30.46F WCI  23
GLENCOE        CLOUDY    34  17  49 SE10      30.47F WCI  26
FARIBAULT      SUNNY     36  16  44 SE13      30.50F
OWATONNA       SUNNY     36  16  44 S14       30.49F
WASECA         CLOUDY    34  21  60 SE13G20   30.50F WCI  25
ALBERT LEA     CLOUDY    34  18  51 SE12      30.47F WCI  25
$$
MNZ078>079-086>088-094>096-221900-
   Southeast Minnesota

CITY           SKY/WX    TMP DP  RH WIND       PRES   REMARKS
ROCHESTER      SUNNY     33  14  45 SE13      30.51S WCI  24
6HR MIN TEMP:  18; 6HR MAX TEMP:  33;

RED WING       SUNNY     36   5  27 SE13      30.52F
STANTON        SUNNY     35  11  37 S10       30.50F WCI  27
DODGE CENTER   SUNNY     34  18  51 SE15      30.49F WCI  24
WINONA         SUNNY     36  10  35 E9        30.56F
AUSTIN         CLOUDY    34  12  40 S10G17    30.49F WCI  26
PRESTON        SUNNY     33   8  35 SE14      30.52S WCI  23
$$
ABBREVIATIONS USED IN REMARKS
   TC - TEMPERATURES IN CELSIUS
  WCI - WIND CHILL INDEX
   HX - HEAT INDEX
  VSB - VISIBILITY
$$




USA.gov is the U.S. government's official web portal to all federal, state and local government web resources and services.